Showing default

T.MICROSAT-2, 68433

Orbit data source: Space-Track

T.MICROSAT-2, 68433 is a Taiwanese payload satellite in SSO that was launched on Mon, 30 Mar 2026 UTC via an FALCON 9 launch vehicle from the Air Force Western Test Range (AFWTR). Payload-class satellites include a variety of spacecraft equipped with specific instruments for various scientific and technological missions. These include communications satellites like Starlink; space stations such as the ISS; scientific satellites like the Hubble; Earth observation satellites from companies like Planet Labs, Umbra, and HawkEye 360; GPS; miniature CubeSats for education and research; and military/defense satellites.

Loading next visibility...
Identifier
68433, 2026-067T
Orbit
SSO
Country
Flag of TWTW / TWN
Related business
Manufacturer
TRON
Mission
Operational Commercial Communications
Bus & Motor
CUBESAT 6U, Unknown motor
Mass
~10 kg wet, ~10 kg dry
Launch date (UTC)
2026-03-30 (6 months ago)
Launch vehicle
FALCON 9
Launch site
Air Force Western Test Range (AFWTR)
Object type
Payload
Rocket body
Debris
Shape & HBR
Box, 0.2 m
Radar Cross Section
0.035 m², Medium (>0.1 m² and < 1m²)

Expand to show TLE details & history
Last TLE update: 11 hours ago

TLE from 11 hours ago
0 T.MICROSAT-2
1 68433U 26067T   26263.39094786  .00002862  00000-0  14336-3 0  9998
2 68433  97.4669 220.4050 0007561  89.7565 270.4536 15.18158666 26371
Epoch: 2026-09-20T09:22Z
TLE epoch observation values (Epoch: 2026-09-20T09:22:57.895Z)
Latitude
0.00006°
Longitude
80.37796°
Altitude
514.455 km
Speed
7.606 km/s
True Right ascension
14h 41m 37s
True Declination
0° 00' 00"
Sunlit
Object was in daylight at epoch
Visualization orbit readout
Latitude
Unknown
Longitude
Unknown
Altitude
Unknown
Speed
Unknown
Apparent Right ascension
Unknown
Apparent Declination
Unknown
Sunlit
N/A
Visualization observer readout
Local Sidereal Time
12:54:19
Azimuth
Unknown
Elevation
Unknown
Doppler factor
Unknown
Orbital elements
Apogee altitude
513.584 km
Perigee altitude
503.17 km
Semi-major axis
6,886.514 km
Eccentricity
0.00076
Inclination
97.4669°
RAAN
220.405°
Arg. of periapsis
89.7565°
True anomaly
270.36696°
Mean anomaly
270.4536°
Eccentric anomaly
270.41028°
Mean motion
3.7979 °/min
Orbital period
94.79 mins
BSTAR
0.00014336
Loading maneuver chart data...
Computing Atmospheric mass density...
Loading historical data...
Loading historical data...
Loading historical data...
Loading historical data...
Loading historical data...
Loading historical data...
Loading historical data...

Documentation

Showing up to 5 results
|